Weather in Kulhudhuffushi

Maldives     6°37′25″N   73°04′19″E
В апреле 2022 года жителям России запретили посещать сайт meteo.paraplan.net по решению Генеральной прокуратуры. Аудитория сайта уменьшилась в 10 раз. Владельцы сайта не видят смысла в поддержке погодного сервера в таких условиях. Сайт будет закрыт в октябре.
temp.,
°C
wind,
m/s
gust,
m/s
humid.,
%
clouds,
%
prec.,
mm/h
press.,
hPa
HPBL,
m
29 september, thu
thu2923:00+28nw557382 0.2 1010824
02:00+28wnw55705 0.1 1008855
05:00+28wnw5573100 0.1 1009906
08:00+27w5577100 0.1 1010788
11:00+28wnw5575100 0.4 1010828
14:00+28wnw5675100 0.6 1008865
17:00+28wnw55749 0.7 1009867
20:00+27wnw5577100 0.9 1011692
30 september, fri
fri3023:00+27w557895 3.8 1012548
02:00+27wnw5674100 0.3 1009751
05:00+27w6776100 0.3 1010828
08:00+27w5679100 2.6 1012578
11:00+27w6777100 5.4 1012766
14:00+27wsw887774 1.6 1010880
17:00+27wsw997719 1.9 1010976
20:00+27w9979100 1.5 1012869
1 october, sat
sat123:00+27w8976100 2.8 1012981
02:00+27w9977100 2.3 1010897
05:00+27w8980100 5.3 1011777
08:00+28w8975100 0.9 10131023
11:00+27w787880 2.8 1012676
14:00+27w91079100 7.7 1009926
17:00+28w101077100 12.4 1010971
20:00+28w91076100 2.1 10111087
2 october, sun
sun223:00+28w8975100 2.2 10111080
02:00+28wnw9973100 0.1 10091179
05:00+28wnw8975100 0.4 10091003
08:00+27wnw8981100 6.3 1012717
11:00+26w91088100 15.8 1012644
14:00+27w81080100 10.4 1009823
17:00+26wnw91183100 19.1 1010766
20:00+26wnw111289100 7.9 1012795
3 october, mon
mon323:00+26wnw111380100 10.6 1012933
02:00+27wnw101176100 0.1 1009906
05:00+28wnw91072100 0.1 10101109
08:00+27wnw8977100 0.9 1012761
11:00+27wnw8976100 7.4 1012781
14:00+27wnw81077100 5.1 1009758
17:00+26nw101281100 8.4 1010792
20:00+26nw91178100 0.5 1012784